Weather History for Winner, SD

Change the Weather History Date:

Wednesday, February 6, 2013

  Actual Average Record
Temperature  
Mean Temperature 43 °F 26 °F  
Max Temperature 50 °F 36 °F 70 °F (2009)
Min Temperature 36 °F 15 °F -11 °F (2014)
Degree Days  
Heating Degree Days 22 39  
Month to date heating degree days 173 239  
Since 1 July heating degree days 3813 4194  
Cooling Degree Days 0 0  
Month to date cooling degree days 0 0  
Year to date cooling degree days 0 0  
Moisture  
Dew Point 29 °F    
Average Humidity 56    
Maximum Humidity 70    
Minimum Humidity 42    
Precipitation  
Precipitation 0.00 in 0.02 in 0.05 in (2011)
Month to date precipitation T 0.11  
Year to date precipitation T 0.36  
Sea Level Pressure  
Sea Level Pressure 29.86 in    
Wind  
Wind Speed 12 mph (West)    
Max Wind Speed 28 mph    
Max Gust Speed 35 mph    
Visibility 10 miles    
Events      
T = Trace of Precipitation, MM = Missing Value Source: NWS Daily Summary

Daily Weather History Graph

Daily Weather History Graph

Search for Another Location

Airport:

Trip Planner

Search our weather history database for the weather conditions in past years. The results will help you decide how hot, cold, wet, or windy it might be!

Date:

Astronomy

Feb. 06, 2013 Rise Set
Actual Time 7:49 AM CST 5:58 PM CST
Civil Twilight 7:19 AM CST 6:28 PM CST
Nautical Twilight 6:45 AM CST 7:02 PM CST
Astronomical Twilight 6:12 AM CST 7:35 PM CST
Moon 4:37 AM CST (2/6) 2:15 PM CST (2/6)
Length of Visible Light 11h 09m
Length of Day
10h 09m
Waning Crescent, 17% of the Moon is Illuminated
Feb 6
Waning Crescent
Feb 10
New
Feb 17
First Quarter
Feb 25
Full
Mar 4
Last Quarter

Hourly Weather History & Observations

Time (CST) Temp. Windchill Dew Point Humidity Pressure Visibility Wind Dir Wind Speed Gust Speed Precip Events Conditions
1:53 AM 37.9 °F 26.3 °F 23.0 °F 55% 29.83 in 10.0 mi South 26.5 mph 34.5 mph N/A   Scattered Clouds
2:53 AM 37.9 °F 26.8 °F 24.1 °F 57% 29.81 in 10.0 mi South 24.2 mph 29.9 mph N/A   Clear
3:53 AM 37.0 °F 25.9 °F 26.1 °F 65% 29.78 in 10.0 mi South 23.0 mph 29.9 mph N/A   Clear
4:53 AM 37.9 °F 27.6 °F 27.0 °F 65% 29.78 in 10.0 mi South 20.7 mph 26.5 mph N/A   Clear
5:53 AM 39.0 °F 29.9 °F 28.0 °F 65% 29.78 in 10.0 mi SSW 17.3 mph - N/A   Clear
6:53 AM 39.9 °F 30.5 °F 28.0 °F 63% 29.77 in 10.0 mi SSW 19.6 mph - N/A   Clear
7:53 AM 39.0 °F 31.8 °F 28.0 °F 65% 29.79 in 10.0 mi SW 11.5 mph - N/A   Clear
8:53 AM 39.9 °F 33.9 °F 27.0 °F 60% 29.81 in 10.0 mi SW 9.2 mph - N/A   Clear
9:53 AM 41.0 °F 36.4 °F 28.0 °F 60% 29.81 in 10.0 mi SW 6.9 mph - N/A   Clear
10:53 AM 45.0 °F 42.6 °F 28.9 °F 53% 29.81 in 10.0 mi SW 4.6 mph - N/A   Clear
11:53 AM 48.0 °F - 28.9 °F 48% 29.82 in 10.0 mi WNW 6.9 mph - N/A   Clear
12:53 PM 50.0 °F - 28.9 °F 44% 29.81 in 10.0 mi WNW 9.2 mph - N/A   Clear
1:53 PM 50.0 °F - 30.0 °F 46% 29.82 in 10.0 mi NW 11.5 mph - N/A   Clear
2:53 PM 48.9 °F - 30.9 °F 50% 29.83 in 10.0 mi NNW 11.5 mph - N/A   Clear
3:53 PM 48.0 °F - 32.0 °F 54% 29.86 in 10.0 mi NW 8.1 mph - N/A   Clear
4:53 PM 46.9 °F - 30.0 °F 52% 29.88 in 10.0 mi NNW 11.5 mph - N/A   Clear
5:53 PM 42.1 °F 37.7 °F 30.9 °F 65% 29.90 in 10.0 mi NW 6.9 mph - N/A   Mostly Cloudy
6:53 PM 42.1 °F 39.2 °F 30.0 °F 62% 29.93 in 10.0 mi NW 4.6 mph - N/A   Overcast
7:53 PM 42.1 °F 39.2 °F 30.9 °F 65% 29.95 in 10.0 mi West 4.6 mph - N/A   Overcast
8:53 PM 39.9 °F 35.8 °F 30.0 °F 68% 29.98 in 10.0 mi West 5.8 mph - N/A   Overcast
9:53 PM 39.0 °F 33.4 °F 30.0 °F 70% 29.99 in 10.0 mi NW 8.1 mph - N/A   Mostly Cloudy
10:53 PM 37.9 °F 32.1 °F 28.9 °F 70% 30.01 in 10.0 mi NW 8.1 mph - N/A   Overcast
11:53 PM 36.0 °F 29.0 °F 28.9 °F 76% 30.03 in 10.0 mi NW 9.2 mph - N/A   Mostly Cloudy